GFSMW_con_3kmhel_225.txt.gz
Helicity
461 488 359 333 337 284 240 248 271 230 201 187 133 102 116 96 76 66 51 48 53 59 80 98 122 118 137 132 159 165 163 197 294 345 307 293 295 342 328 335 422 444 473
562 538 457 333 318 275 246 244 213 193 167 138 96 72 76 51 41 45 58 62 71 65 82 102 110 111 131 134 144 163 144 197 284 327 357 334 318 366 349 380 414 527 510
563 539 409 325 340 289 248 199 152 109 91 92 74 88 85 73 61 57 61 57 61 62 62 75 109 108 115 109 121 127 145 151 194 250 391 381 435 335 397 401 450 553 621
515 431 342 361 261 185 161 160 161 125 69 53 46 50 50 49 42 64 80 94 79 67 63 80 92 102 119 111 109 125 146 154 159 223 247 350 382 346 364 344 452 460 559
492 365 253 193 157 130 130 155 155 126 97 68 51 51 73 102 114 102 99 92 98 90 85 88 82 96 100 91 91 106 101 93 113 265 214 327 379 455 400 423 424 387 469
454 286 248 230 137 72 112 149 165 136 116 75 67 85 95 114 131 128 116 99 90 101 98 98 120 115 93 91 86 79 104 102 124 59 116 127 155 280 421 369 405 383 494
416 340 379 304 251 222 163 109 107 104 93 58 67 91 110 131 134 131 140 119 100 118 114 101 88 90 81 85 87 101 103 115 124 133 141 144 134 139 128 231 332 291 404
417 476 478 410 355 325 255 179 155 123 68 74 122 153 138 138 122 110 131 124 73 51 64 83 86 85 97 117 112 128 135 116 102 99 108 114 116 119 104 94 142 261 276
484 450 436 371 321 257 169 157 124 92 107 128 124 147 154 158 144 98 53 48 62 56 76 88 70 69 99 48 109 138 118 103 105 97 84 88 87 83 76 61 20 72 188
589 531 421 307 199 132 117 103 101 130 143 121 134 124 146 115 108 108 92 63 -4 11 53 50 25 -24 30 39 36 135 98 71 62 74 66 64 77 69 54 40 45 89 138
552 471 332 226 154 106 104 125 178 186 147 148 142 128 110 102 79 91 85 64 68 31 -3 -12 14 11 34 43 116 122 48 56 87 70 41 51 58 59 60 35 25 46 117
362 319 241 152 150 150 162 172 176 154 134 111 128 103 109 101 105 116 125 115 118 95 69 54 36 23 20 34 -44 -116 42 91 122 59 97 82 100 69 51 53 23 33 56
331 282 253 278 239 188 185 183 158 134 115 97 86 105 128 135 137 132 125 129 143 128 124 129 145 133 120 58 -7 49 104 202 99 28 64 78 100 86 102 65 49 67 63
331 357 314 261 204 186 226 221 174 138 121 130 137 137 127 122 119 129 150 147 134 145 161 176 214 234 217 151 89 58 72 42 60 118 63 64 83 73 92 86 52 74 97
373 357 305 281 335 322 220 162 124 104 112 130 131 128 135 152 153 132 115 123 124 97 136 164 207 225 205 161 105 62 33 44 97 133 83 86 84 83 88 103 94 101 64
432 442 426 366 293 192 164 134 132 130 137 126 106 106 123 150 180 216 225 159 103 113 146 92 105 115 154 148 101 45 14 31 75 64 48 55 54 55 51 63 26 6 83
542 456 362 268 208 164 110 110 126 132 123 118 140 147 150 154 136 150 133 137 105 86 104 132 77 99 89 87 94 68 36 51 64 51 43 29 73 59 84 111 108 -44 196
388 297 219 202 154 130 160 198 178 126 89 73 115 145 113 100 83 78 80 56 73 54 31 61 105 134 117 62 61 65 51 45 53 38 43 48 59 66 74 112 178 115 136
300 229 201 176 164 187 197 161 120 89 94 128 89 73 72 85 104 102 86 102 107 74 26 32 28 86 59 28 20 47 47 54 42 26 29 49 52 56 51 96 121 125 195
234 227 218 206 208 189 134 115 100 94 84 64 57 54 86 108 89 96 94 117 92 66 67 61 65 65 71 40 56 66 68 61 76 62 41 23 47 43 60 93 115 171 152
224 216 215 173 153 121 103 88 81 78 64 58 57 65 73 79 74 72 61 58 32 23 42 68 94 94 74 65 65 83 110 115 95 92 60 68 25 57 66 98 74 147 133
210 190 149 130 106 88 77 83 83 67 56 38 50 58 65 64 57 48 53 59 56 52 54 58 56 66 73 63 62 61 63 92 112 103 76 72 39 65 71 110 130 199 153
176 140 116 96 82 76 80 79 58 47 49 41 55 62 63 84 93 79 67 66 63 70 66 83 69 100 83 77 55 59 72 53 79 107 67 54 57 81 90 170 186 174 160
145 107 97 80 68 61 56 49 47 48 42 41 56 76 80 78 80 83 82 82 82 81 90 108 127 128 135 102 69 78 61 53 63 76 83 96 134 129 132 187 167 170 160
107 92 79 64 50 33 26 22 21 33 32 34 53 64 75 81 84 81 87 81 98 124 128 138 154 148 150 120 41 9 54 110 101 130 145 166 160 169 170 132 193 197 172
91 76 57 37 15 5 9 6 14 21 25 40 54 60 66 66 72 81 64 53 72 83 89 109 137 153 163 88 30 -26 4 86 131 152 154 175 176 176 200 191 178 193 168

GFSMW_con_3kmhel_228.txt.gz
Helicity
469 437 424 376 367 343 371 382 353 269 174 159 140 138 133 115 111 102 86 71 60 57 64 73 75 82 107 111 102 133 124 110 177 174 212 183 234 269 316 385 414 413 416
619 572 528 454 411 401 393 412 314 249 226 197 164 126 99 75 52 53 59 74 79 93 99 108 128 127 114 100 94 87 104 117 135 184 165 191 211 361 285 398 433 444 457
746 657 563 436 389 401 413 451 368 291 227 175 124 109 88 83 83 75 67 88 93 104 125 134 121 120 110 98 89 105 110 106 92 89 131 173 227 216 229 274 356 382 468
696 573 452 402 380 387 426 380 293 246 223 187 135 95 72 70 63 91 114 131 157 141 118 107 86 78 79 94 80 62 79 89 119 80 97 109 140 101 155 151 184 290 388
620 500 403 372 337 339 400 348 306 270 187 129 81 63 68 49 50 73 116 152 172 166 154 145 124 87 70 65 52 37 38 46 66 57 43 58 53 105 237 192 182 246 348
525 383 358 320 350 403 420 333 283 218 162 113 69 67 62 63 83 103 139 177 187 185 185 162 161 162 127 92 73 66 68 62 46 33 40 69 111 135 86 153 135 148 250
542 493 440 451 449 428 362 327 247 178 100 77 99 101 76 74 69 122 148 150 161 143 119 53 59 58 36 15 20 43 57 87 113 76 57 81 98 114 130 129 91 113 119
585 524 514 499 409 323 266 222 158 84 83 94 68 58 53 77 133 135 149 146 100 67 24 33 20 36 38 42 43 22 46 76 55 109 66 78 107 112 116 109 125 10 9
728 662 557 451 400 346 282 177 115 120 114 71 65 76 106 172 182 171 126 79 47 28 -7 5 -8 -7 -0 11 20 9 -13 -27 42 101 105 130 171 67 82 101 80 69 74
724 596 508 445 376 314 219 184 158 134 93 91 107 142 167 156 138 116 102 81 72 83 70 41 16 16 3 35 56 56 47 51 58 65 103 66 167 60 41 52 70 77 51
720 607 523 415 346 253 198 150 128 94 119 122 136 168 159 145 138 123 114 110 130 128 127 104 90 87 67 75 100 84 46 41 8 -17 -28 84 127 81 61 65 57 80 81
581 474 367 323 267 205 167 153 123 162 171 183 181 152 140 130 124 123 127 130 139 161 171 161 159 143 140 143 160 126 97 64 72 28 41 113 266 109 66 65 61 58 65
603 509 454 361 279 261 305 262 258 214 233 208 179 158 143 139 132 122 122 121 124 133 139 147 155 149 157 192 200 209 138 93 58 28 36 40 138 58 77 51 66 98 92
527 500 421 401 426 361 311 292 280 264 231 195 176 171 181 184 154 124 112 119 119 91 104 104 93 102 138 167 168 122 120 109 86 83 67 30 101 42 34 41 46 75 96
575 490 531 483 422 336 289 266 256 222 174 186 188 175 174 150 107 107 108 107 122 128 100 92 54 54 96 130 120 118 141 195 116 98 89 127 52 -36 -21 33 58 85 95
608 627 585 477 352 296 262 273 238 196 173 156 144 146 122 83 64 67 69 71 78 89 79 62 75 58 63 173 209 189 104 79 106 93 105 106 59 37 -14 29 64 71 88
712 670 545 385 322 326 297 256 219 179 160 146 156 120 91 74 65 63 72 99 99 85 79 78 105 125 89 79 73 59 87 119 100 90 94 72 65 50 24 26 60 81 91
635 532 406 340 317 294 258 206 194 171 147 124 102 87 67 54 61 78 81 95 105 93 101 86 103 82 77 68 62 43 29 112 124 95 85 77 63 62 32 24 50 98 115
458 377 336 288 258 217 163 143 125 101 103 108 101 70 59 67 53 58 67 71 68 72 61 40 37 26 44 39 49 69 79 100 74 115 103 67 58 71 28 45 59 105 128
393 366 261 219 196 162 131 120 97 96 110 117 101 65 56 51 50 49 54 66 66 74 71 69 60 67 79 77 63 73 85 79 85 85 94 82 82 76 49 41 88 95 96
365 268 220 185 181 152 134 141 131 117 85 94 73 54 51 52 59 76 86 82 81 86 91 103 93 86 90 97 70 75 105 105 95 106 104 112 106 81 55 32 73 81 89
296 229 227 217 184 160 154 150 123 84 79 74 64 58 58 68 74 75 88 86 88 90 88 81 74 80 85 78 68 76 117 104 88 80 92 116 75 63 43 62 33 39 96
237 208 193 178 162 130 108 99 74 73 68 63 59 61 53 64 78 84 88 87 84 81 70 82 88 101 110 122 87 103 89 76 88 68 68 38 33 27 47 26 34 74 126
176 164 168 156 122 116 99 71 53 57 57 53 49 48 51 60 67 83 83 86 79 67 63 79 95 107 118 115 119 132 93 36 22 47 51 43 52 62 69 81 82 106 111
177 159 140 114 110 92 64 53 53 49 46 35 22 28 45 45 60 64 70 73 76 92 92 103 123 124 138 131 104 112 82 2 -5 71 77 84 80 97 117 106 106 107 103
146 126 107 100 71 52 47 39 39 32 24 28 39 35 37 47 47 47 68 65 69 75 76 74 104 129 111 76 66 53 30 -33 -24 56 71 71 81 97 112 114 126 96 86

GFSMW_con_3kmhel_231.txt.gz
Helicity
353 320 350 332 348 356 336 320 362 336 301 268 214 195 176 172 162 118 92 86 85 104 128 148 163 166 170 160 148 143 156 159 132 131 91 68 123 130 175 236 270 242 285
377 382 376 408 422 418 408 420 407 385 349 268 248 217 192 172 120 99 90 82 92 107 124 147 167 183 188 192 178 148 133 127 116 139 161 144 96 50 41 108 197 252 322
527 505 462 436 439 430 392 413 396 411 393 289 220 190 151 123 98 80 57 72 91 113 143 180 201 201 176 183 158 137 164 189 162 127 159 208 208 90 44 46 117 191 298
523 530 515 499 453 417 395 411 419 436 400 326 265 187 120 102 66 44 42 71 112 151 168 171 181 175 154 171 138 120 107 111 138 105 117 166 151 203 130 81 29 58 101
610 601 536 498 414 396 425 437 436 439 362 294 202 144 123 88 57 55 81 95 98 139 195 197 205 216 206 176 138 101 85 63 65 69 64 81 140 180 217 223 82 92 126
571 557 504 477 498 451 440 434 427 413 309 225 152 102 77 56 65 77 91 79 73 84 160 174 175 173 183 168 137 96 64 56 67 69 45 15 7 31 127 209 230 208 85
600 615 580 553 548 523 444 423 402 369 235 155 130 116 75 43 26 10 2 20 61 122 128 129 103 55 59 92 84 102 115 94 82 90 120 105 71 54 111 152 129 108 89
591 542 529 554 529 462 418 404 372 290 189 149 125 79 29 5 -7 8 56 98 120 93 78 56 57 48 30 22 11 33 58 69 63 66 75 100 98 48 51 113 215 108 97
587 535 547 561 531 425 380 338 287 226 170 121 74 42 8 2 24 82 125 125 118 119 65 60 63 52 37 29 39 70 76 86 91 57 40 72 84 97 102 225 170 132 93
606 637 591 538 471 406 328 287 217 174 138 90 53 36 44 75 112 143 162 156 143 137 135 127 127 126 124 107 93 114 127 124 116 96 79 88 104 144 73 95 106 132 208
753 713 637 535 422 363 312 272 264 234 181 117 94 106 111 155 157 153 153 162 155 153 141 132 138 147 150 155 166 168 167 156 153 117 100 79 61 98 134 148 157 142 100
774 723 646 537 435 372 377 380 317 255 201 165 151 149 173 177 183 187 194 179 163 134 108 122 135 138 146 151 159 135 153 215 155 132 132 103 107 126 132 141 119 119 50
705 669 625 504 444 437 413 358 287 237 199 166 168 195 203 194 200 199 178 157 125 110 133 151 159 140 116 114 111 114 120 161 154 148 141 104 105 108 94 54 74 88 9
671 657 607 573 533 491 384 304 262 206 170 158 170 182 183 185 181 165 149 119 98 96 111 118 127 128 116 111 102 94 108 131 132 115 142 127 126 116 82 40 43 44 16
721 709 705 627 518 416 362 314 242 200 156 168 191 197 191 171 152 131 102 85 95 112 108 103 123 134 140 156 167 178 184 183 189 170 68 56 80 87 99 119 91 74 19
803 782 657 571 491 429 338 245 206 180 167 194 191 181 160 133 117 97 80 69 64 77 98 105 102 98 116 113 124 157 176 156 126 87 46 75 51 72 55 43 47 40 9
848 786 654 568 494 373 244 218 197 177 205 191 173 157 132 104 92 92 71 57 57 61 72 79 82 74 76 68 68 79 103 124 103 64 71 56 91 73 74 38 39 45 -2
871 820 655 581 421 282 254 214 168 194 195 186 153 128 101 88 84 76 63 56 62 66 66 73 73 70 88 73 58 61 109 138 148 137 117 108 90 42 63 64 70 85 59
742 615 479 386 324 318 249 186 197 198 180 165 163 142 108 96 79 90 74 73 74 67 83 87 88 95 80 50 49 78 95 110 114 114 121 112 96 84 62 54 79 42 76
756 601 463 409 407 278 197 200 199 186 141 120 166 148 125 93 73 76 75 84 83 85 100 91 91 72 63 61 68 90 123 131 128 98 101 101 96 78 71 87 96 43 46
709 629 557 469 225 198 190 193 176 140 114 112 130 140 123 94 66 64 75 82 84 81 79 82 75 71 64 78 73 69 119 140 136 133 121 101 66 62 78 72 94 56 68
707 594 328 258 234 192 193 159 151 119 113 122 134 120 103 88 70 57 65 72 71 68 72 74 61 55 63 71 71 69 100 116 166 144 115 80 46 39 69 69 51 33 35
332 263 269 265 210 176 157 166 134 136 144 139 117 94 75 67 64 67 64 66 69 69 68 71 76 67 79 79 65 78 95 111 154 131 68 7 26 38 36 39 13 4 24
320 301 272 230 203 182 170 139 132 148 142 121 90 62 67 59 53 57 55 60 63 70 71 76 86 90 97 112 81 98 124 102 116 96 13 32 38 37 38 17 31 35 -1
302 240 217 203 181 148 139 138 149 132 107 84 67 62 61 68 66 63 62 67 67 73 77 80 100 110 110 124 75 82 120 139 120 51 31 59 50 32 10 37 58 24 -12
212 199 194 177 141 131 130 124 111 96 74 58 62 74 87 85 77 78 106 45 16 13 18 32 70 108 117 86 62 58 60 74 73 24 52 49 49 13 34 69 43 -7 7

GFSMW_con_3kmhel_237.txt.gz
Helicity
204 204 181 182 169 153 164 192 204 237 275 292 346 286 259 230 225 192 163 131 102 88 68 54 56 50 65 76 90 101 129 139 142 102 144 106 81 154 129 181 163 148 166
190 179 168 176 181 162 190 198 269 260 295 249 280 286 276 232 202 156 122 79 47 31 35 34 35 50 58 93 134 160 165 171 201 186 157 162 153 148 184 137 166 194 170
165 170 198 205 195 134 188 247 324 340 328 322 346 369 342 258 184 141 113 87 56 52 47 52 50 68 103 143 172 190 195 190 160 171 130 140 185 131 50 119 102 130 70
188 194 222 218 201 200 244 317 391 420 387 339 339 325 279 234 181 142 107 79 52 47 51 54 71 88 103 131 155 166 155 133 139 109 84 72 83 90 48 72 88 49 58
210 257 257 249 253 276 337 403 462 444 399 382 363 354 316 259 193 151 113 76 59 66 71 72 71 78 87 105 119 119 115 115 118 91 89 89 90 98 104 34 36 86 89
202 253 313 307 323 350 402 463 489 504 475 405 348 322 284 232 176 109 81 75 65 49 49 59 70 79 95 113 118 96 85 75 59 62 42 61 98 102 110 102 68 45 55
243 316 348 365 414 437 471 517 548 540 457 412 381 320 234 159 116 99 98 82 73 48 92 100 88 109 138 139 136 126 108 105 104 100 103 103 102 98 100 95 106 109 103
251 289 362 438 471 491 518 550 527 505 430 383 353 283 208 157 149 118 88 72 59 94 91 93 126 155 154 145 146 134 119 112 119 115 123 140 142 146 140 138 121 113 91
228 300 410 485 477 497 491 489 467 440 404 378 320 253 209 176 149 122 87 92 112 99 128 169 180 184 182 175 151 127 114 133 134 140 145 151 144 146 151 148 126 111 127
216 267 399 470 478 467 442 435 406 404 370 307 272 231 188 163 138 116 130 140 137 158 191 201 196 192 177 154 135 131 135 137 143 146 139 137 134 131 147 149 145 139 124
246 315 413 505 500 487 457 444 446 420 376 322 256 233 199 165 151 154 151 131 139 162 171 177 185 176 150 127 122 132 137 141 129 128 133 115 108 123 128 143 146 130 114
205 287 399 557 518 499 489 479 471 413 334 283 266 238 200 188 183 160 120 113 138 147 166 174 163 145 119 106 116 118 107 101 105 107 111 104 106 102 103 133 138 124 90
211 264 366 499 522 514 505 494 448 391 337 307 291 261 231 197 158 124 106 106 138 158 164 154 129 109 103 91 88 85 89 93 95 85 76 67 65 84 95 113 111 118 77
216 238 313 490 521 511 514 498 472 409 362 334 304 253 204 158 131 127 100 141 154 161 164 133 114 101 87 90 89 91 94 91 83 72 71 70 85 99 92 98 108 105 90
158 196 325 487 499 524 527 510 485 429 370 338 286 241 180 144 142 111 138 150 164 152 133 119 101 93 97 97 109 114 98 83 74 74 72 79 89 90 107 128 144 144 135
173 244 416 521 539 585 606 590 523 457 377 332 270 207 172 148 121 124 142 160 153 143 127 109 95 84 84 78 106 102 92 85 75 82 85 84 79 91 109 127 143 162 150
309 379 475 564 630 711 715 633 530 436 367 306 291 220 171 121 111 133 138 146 147 128 116 98 92 84 86 87 83 92 96 90 88 91 96 98 113 105 104 116 126 132 137
337 385 531 655 766 754 710 675 535 448 380 355 273 207 121 126 140 144 152 141 125 110 107 99 86 81 89 92 77 88 91 96 101 97 97 95 97 111 118 134 146 134 110
409 466 601 805 882 822 753 703 545 420 353 288 233 137 134 152 158 174 164 136 119 113 93 79 77 84 81 68 63 73 80 85 88 84 97 107 102 98 95 142 136 117 100
449 595 754 838 887 840 738 637 523 449 366 288 159 130 141 150 157 148 132 115 98 75 55 54 54 58 54 32 34 56 79 83 88 81 92 94 105 106 99 120 83 87 91
549 590 734 942 970 800 632 559 448 469 310 172 123 134 132 130 115 114 107 83 55 37 34 40 54 51 35 38 30 49 79 89 99 100 96 113 89 100 76 36 66 95 81
619 677 902 973 894 693 576 552 454 287 190 139 152 155 135 112 109 113 89 52 32 26 39 49 54 65 64 62 61 54 58 82 109 99 96 106 74 65 44 48 44 34 56
662 716 904 994 801 616 475 455 356 212 165 171 190 171 136 135 110 79 40 28 41 52 54 47 39 39 43 47 40 46 49 69 93 92 64 47 61 63 64 53 32 35 48
606 723 874 829 699 519 402 306 179 209 190 217 201 175 172 126 69 38 38 42 50 45 39 36 40 40 33 36 45 52 66 69 82 70 79 66 79 66 60 46 37 47 58
581 645 641 578 525 449 324 169 222 204 222 214 179 149 101 58 39 44 55 56 43 28 35 34 37 46 52 49 36 64 73 82 81 71 78 62 72 53 50 48 45 55 25
520 503 479 419 328 225 246 242 210 205 202 166 121 88 68 58 73 79 80 52 40 45 34 36 58 80 42 27 32 44 41 50 59 66 57 51 68 46 39 42 46 55 -33

GFSMW_con_3kmhel_240.txt.gz
Helicity
92 111 130 144 136 122 118 137 153 188 228 284 265 237 229 184 181 159 137 114 100 83 68 61 52 51 64 71 72 76 94 118 182 134 192 123 71 141 184 141 103 118 134
68 166 110 141 125 136 169 149 158 227 214 227 220 203 180 178 178 157 144 118 91 78 65 58 62 63 71 76 78 88 101 138 177 159 139 156 120 154 219 114 141 156 186
104 150 121 126 121 123 163 166 183 217 203 250 327 299 260 196 198 161 131 107 81 66 58 62 79 74 73 96 107 119 131 126 126 137 122 155 195 179 81 149 104 193 122
105 110 96 91 103 136 174 169 196 231 289 303 281 254 224 206 197 169 142 105 85 91 86 80 76 81 91 96 99 116 108 118 131 152 153 146 129 139 151 138 131 107 131
118 101 108 78 98 139 186 223 249 276 291 337 280 259 230 238 207 178 156 148 130 104 88 76 87 88 75 98 104 97 105 122 152 136 111 105 100 94 120 135 115 111 123
143 79 102 133 145 180 184 226 247 327 377 352 340 321 282 247 226 192 168 147 120 95 94 83 71 71 88 110 88 96 105 119 110 102 101 107 113 115 122 130 128 130 128
153 129 136 199 221 229 248 304 379 423 431 416 374 298 261 234 222 185 163 145 111 87 91 76 61 75 113 107 121 125 111 106 106 93 100 108 112 117 125 134 147 149 131
149 136 128 156 193 275 348 377 433 475 464 431 376 347 302 273 237 198 165 133 114 104 91 71 92 116 122 139 148 130 128 116 108 98 106 122 132 138 137 148 137 144 135
137 100 147 137 208 281 390 436 509 501 467 411 405 369 317 264 233 198 147 125 111 93 83 101 121 120 148 159 153 139 121 113 110 114 113 118 120 128 127 126 125 136 150
116 89 115 176 230 275 379 436 446 453 433 408 375 344 306 251 204 169 151 133 118 100 109 123 114 114 126 132 130 111 94 99 101 105 95 92 104 105 108 104 98 117 146
100 93 116 188 227 290 356 391 417 401 379 375 367 330 283 244 214 189 159 135 116 125 113 102 92 105 118 122 103 89 85 85 82 83 91 89 86 91 90 101 131 129 113
109 116 155 182 212 294 369 392 403 382 381 360 345 330 296 249 207 174 157 138 144 124 94 79 94 117 126 109 98 81 92 82 80 85 90 85 91 79 84 119 117 123 109
135 136 165 185 200 282 376 425 420 402 384 373 363 331 278 231 203 178 166 151 124 81 77 89 110 124 119 104 85 89 86 85 86 90 92 87 81 77 93 117 127 125 138
149 180 170 159 177 283 406 451 424 425 411 372 353 318 266 234 207 188 174 148 87 68 90 113 122 114 109 100 98 101 97 85 86 94 97 88 84 89 108 117 135 167 176
178 234 180 126 151 297 428 424 463 453 426 401 374 322 280 244 221 201 169 90 73 99 106 114 121 122 115 133 117 103 89 82 89 98 107 112 115 107 113 163 163 190 204
163 128 114 98 156 299 448 481 469 465 448 407 367 324 289 246 205 177 108 78 99 110 111 128 133 120 120 163 119 98 84 88 97 106 103 104 91 99 122 133 164 194 196
98 108 119 142 194 344 490 496 522 522 474 423 381 325 264 236 210 166 78 103 120 116 128 127 114 119 132 164 118 86 75 85 89 94 97 97 102 99 112 140 144 160 159
165 169 183 175 232 361 457 520 571 543 492 436 361 296 263 275 205 96 103 129 118 125 131 124 120 118 107 101 70 56 60 74 81 84 79 86 85 93 120 123 144 136 100
190 215 208 260 314 387 528 639 612 561 492 423 356 338 305 212 138 91 144 138 127 108 99 101 95 80 71 63 43 54 68 85 89 90 88 102 100 100 92 110 116 107 83
179 218 245 266 334 390 583 680 655 581 502 443 406 333 234 168 109 164 124 112 102 89 88 92 84 82 52 89 78 75 88 100 113 96 91 92 90 85 79 101 104 74 78
208 235 326 360 478 534 662 804 689 593 496 439 356 276 172 110 162 112 105 103 88 90 93 82 64 54 68 68 69 64 88 113 120 117 102 97 83 67 66 71 69 79 59
307 320 420 408 470 535 783 746 663 599 532 429 314 215 107 165 113 115 123 104 108 102 85 74 61 56 53 60 61 76 78 65 86 94 90 92 59 47 50 61 52 49 52
264 259 308 506 482 476 701 770 703 564 421 330 248 161 161 134 134 135 132 128 105 84 69 51 44 45 44 46 66 63 50 31 65 73 89 88 53 52 71 61 45 52 62
236 287 390 509 547 674 736 628 497 397 292 282 203 204 175 159 153 143 135 110 86 67 54 48 45 48 48 46 73 69 58 54 63 69 72 64 61 78 93 72 58 59 59
255 288 342 466 677 734 720 561 426 289 220 215 203 210 195 172 164 150 114 86 64 52 53 54 52 54 56 62 49 42 53 61 70 64 67 66 53 56 68 62 47 54 57
317 293 349 566 644 608 572 429 269 149 225 205 205 191 180 169 165 134 97 40 29 42 30 26 45 51 32 39 45 35 36 47 56 60 68 65 63 54 60 57 40 45 48

GFSMW_con_3kmhel_243.txt.gz
Helicity
-18 19 86 93 98 95 174 155 129 145 213 225 215 203 171 178 165 154 119 117 93 84 67 64 54 59 85 97 76 54 61 61 137 76 123 104 66 145 149 251 191 100 142
51 20 69 186 143 145 163 144 118 222 252 250 181 159 175 163 180 171 147 138 98 92 91 93 78 82 83 80 85 76 69 79 138 133 108 152 100 265 275 196 207 123 194
57 68 35 243 195 136 151 141 155 259 264 266 244 228 266 245 207 170 154 127 113 113 104 98 120 94 96 110 85 84 96 101 129 171 113 125 181 180 153 149 130 191 160
13 47 95 226 188 126 135 200 229 222 182 196 279 314 278 227 165 144 161 154 127 115 120 114 102 100 95 91 78 117 99 113 124 149 173 192 166 183 184 129 113 111 125
31 53 126 180 170 131 174 154 195 228 219 217 249 274 194 182 219 186 199 187 163 128 103 95 88 89 85 102 91 91 107 134 152 154 156 163 157 147 148 158 124 132 130
49 28 87 93 202 169 200 184 176 262 289 255 263 197 212 305 245 223 204 195 159 138 127 109 98 99 98 92 78 102 120 131 130 127 129 146 156 135 128 146 144 128 124
96 48 79 160 253 175 237 223 190 359 364 306 276 221 272 308 229 211 203 197 168 154 143 109 97 81 98 85 88 121 132 111 126 132 127 116 102 112 125 132 139 144 130
94 125 73 107 258 224 271 230 265 368 325 357 371 423 391 318 268 194 244 196 188 165 159 107 103 106 96 91 121 133 108 120 125 118 107 103 100 99 107 120 134 150 135
36 120 121 103 218 309 304 244 225 341 358 437 457 425 290 287 283 332 276 257 232 183 140 126 115 104 95 126 144 115 106 116 112 112 91 87 88 103 110 117 123 147 151
52 135 223 114 279 320 243 167 204 341 398 460 454 386 374 359 347 304 274 235 207 186 134 121 114 108 120 134 116 88 104 116 111 95 90 86 96 105 116 118 121 135 181
44 220 202 177 244 298 192 153 205 309 357 494 462 493 462 386 333 300 270 223 178 139 135 132 121 112 140 124 97 103 102 103 94 88 84 88 93 112 121 133 131 134 113
122 190 152 245 246 256 232 190 285 388 487 532 552 532 401 387 354 302 248 207 177 164 147 131 113 139 135 107 113 109 111 92 86 88 90 92 113 114 121 134 139 167 115
116 129 118 178 304 271 213 183 266 384 507 525 526 443 418 338 328 305 244 187 182 171 151 124 130 152 124 101 103 100 94 84 82 82 97 99 111 117 128 149 172 145 155
155 132 139 188 215 228 245 238 282 426 520 523 460 442 364 368 350 285 235 214 200 161 130 116 144 125 95 107 113 112 101 85 86 97 107 110 116 158 176 157 162 168 169
168 131 149 182 168 202 230 250 264 354 449 467 432 408 420 408 343 284 256 241 180 151 119 107 119 109 105 150 141 119 96 87 84 95 106 112 132 116 131 175 184 171 176
186 176 186 155 245 236 254 246 313 401 417 411 416 444 475 407 327 292 263 209 173 133 99 115 123 116 175 199 152 111 80 74 84 86 90 91 92 92 146 149 169 175 161
162 219 191 134 254 265 248 223 321 439 447 422 479 471 432 379 325 286 237 189 146 119 86 133 107 123 195 158 125 96 63 74 83 87 87 101 110 127 132 142 154 135 135
163 170 146 189 209 216 195 254 373 404 453 460 496 457 441 382 337 285 226 156 120 77 131 143 139 118 112 121 75 65 49 72 67 68 89 110 128 124 131 128 132 133 122
113 127 144 214 265 271 293 363 401 418 411 485 514 497 442 399 319 262 183 162 127 160 139 122 107 93 100 85 89 81 79 65 73 92 105 114 116 112 102 119 124 118 117
140 133 174 180 255 382 377 446 446 427 517 563 554 511 437 363 291 219 185 159 143 137 117 119 117 124 94 133 120 103 67 70 79 80 92 102 106 109 101 120 113 112 106
118 115 189 258 313 455 498 528 500 529 634 577 578 549 435 330 253 170 128 108 148 133 141 137 109 101 106 99 105 72 63 74 87 106 119 118 87 98 70 73 112 116 89
122 157 319 459 411 492 644 620 556 661 545 587 650 514 425 300 195 149 135 154 150 158 154 136 116 93 89 85 71 78 66 74 92 100 109 98 56 52 74 97 104 100 92
333 420 517 612 570 590 639 522 561 540 604 676 578 449 321 193 150 169 169 168 158 157 149 128 113 107 82 55 55 41 46 64 91 96 82 55 51 63 85 84 79 100 83
262 385 490 517 503 447 434 355 631 663 644 700 551 324 264 256 233 199 168 172 177 163 139 120 105 86 68 56 56 60 70 84 92 87 83 76 75 77 80 81 87 100 70
309 268 325 434 454 465 464 599 470 617 670 698 438 384 318 224 198 182 184 188 151 122 105 95 83 74 59 56 70 60 74 76 76 76 83 85 76 72 69 68 77 97 60
360 427 451 389 328 478 546 481 550 537 539 412 337 284 238 210 235 217 241 223 149 107 105 88 70 64 45 36 41 47 43 46 54 80 85 91 90 81 66 64 66 86 53

GFSMW_con_3kmhel_246.txt.gz
Helicity
-16 4 122 105 73 251 366 373 311 222 173 132 221 234 259 230 201 182 194 152 147 131 131 110 97 125 134 123 102 93 90 64 87 80 90 91 111 222 288 260 259 256 219
41 29 -12 139 200 271 284 326 348 280 214 220 224 265 247 216 209 208 154 178 165 145 158 147 130 169 105 126 101 78 76 88 124 89 80 111 107 189 163 183 206 244 191
111 67 145 142 231 328 337 352 452 381 355 261 259 239 233 205 227 232 218 224 203 178 188 203 174 155 153 123 95 94 108 80 87 136 108 142 187 160 141 139 145 135 121
-46 64 43 251 403 391 368 380 457 440 413 312 259 269 304 291 309 276 241 229 210 225 211 188 162 153 167 156 125 124 87 97 89 129 187 214 198 156 183 151 117 113 109
89 52 69 116 414 489 484 423 475 490 449 376 302 337 363 332 331 260 306 266 241 240 193 179 162 156 159 137 126 118 110 105 121 159 160 175 173 166 187 184 145 135 116
148 95 40 51 353 497 468 455 519 508 433 330 359 357 321 362 363 367 381 306 273 232 223 189 172 162 149 145 130 123 102 123 137 139 163 176 172 167 169 178 140 136 124
89 114 156 108 180 471 456 608 550 488 333 286 372 345 314 289 333 440 343 315 274 274 254 223 189 131 162 149 132 120 112 110 125 168 172 157 156 147 135 148 148 172 147
116 86 163 167 136 387 489 628 525 419 341 353 358 312 289 351 444 374 295 284 283 272 252 233 201 193 167 149 124 105 112 135 176 177 159 156 125 110 117 133 151 164 162
185 163 141 219 253 393 566 879 684 454 328 355 451 487 490 501 458 297 343 319 347 409 307 251 201 181 157 148 129 115 126 159 172 171 139 130 110 103 110 122 135 164 182
210 126 92 227 337 465 705 847 751 550 383 538 608 591 567 539 398 445 520 512 467 374 297 243 216 180 162 129 136 141 162 202 177 138 129 115 109 107 117 127 152 176 210
159 89 74 260 369 736 853 868 757 675 474 446 535 514 505 522 603 667 578 546 425 362 277 230 199 182 151 138 139 162 186 184 154 120 109 110 108 119 130 142 153 167 222
157 114 147 322 546 722 767 748 668 622 468 479 459 468 547 667 697 653 423 465 377 341 295 237 201 170 143 134 173 201 192 164 129 117 112 108 116 120 137 158 193 202 215
115 96 304 376 535 556 601 565 504 428 391 403 524 622 666 758 665 480 567 360 402 350 278 251 195 153 152 149 210 178 182 152 121 118 126 115 128 148 169 155 161 173 203
209 215 270 327 384 459 515 443 367 308 361 441 550 698 673 648 576 571 476 380 353 340 300 226 180 158 109 173 200 229 169 125 114 115 120 114 142 152 129 147 174 186 191
141 166 254 324 389 446 481 446 411 457 482 459 560 661 689 655 650 586 396 433 369 327 267 215 171 129 179 219 247 174 125 108 98 115 101 102 104 100 136 182 171 148 153
157 197 321 301 380 389 485 473 410 499 534 504 567 666 667 709 668 488 485 404 382 310 251 174 146 142 237 227 200 142 114 88 106 94 82 71 60 124 143 138 130 137 128
230 205 277 307 404 406 427 507 500 540 534 522 527 593 715 701 569 498 472 383 344 292 223 189 144 253 215 166 142 124 81 57 68 70 55 70 80 115 132 115 117 107 102
151 237 269 286 368 373 426 522 518 539 496 436 500 643 741 641 531 506 448 396 356 256 229 203 239 242 153 136 133 92 50 53 68 74 83 82 108 125 120 126 138 120 108
73 212 339 264 344 449 454 495 525 570 531 508 657 706 683 568 541 507 444 425 299 322 232 221 212 154 157 147 119 71 71 79 67 66 67 88 112 87 79 124 105 95 101
113 156 278 248 466 504 506 450 522 599 584 739 811 750 586 528 505 474 498 381 422 241 189 171 142 187 174 140 108 67 75 63 72 60 50 77 86 82 99 100 102 109 99
-31 42 261 339 558 566 549 487 567 608 717 900 904 823 554 494 467 515 449 454 248 206 167 185 162 147 129 95 84 71 63 70 60 53 76 95 80 56 71 81 111 122 119
71 22 219 474 504 516 613 639 632 756 939 1043 1012 699 506 522 571 522 395 261 218 190 203 204 229 174 114 93 68 71 66 60 55 69 89 90 48 56 82 87 74 68 94
163 227 374 411 524 525 609 697 895 988 1078 1082 787 617 607 561 510 318 271 212 172 195 224 229 187 156 107 89 95 92 84 72 74 77 76 47 50 64 81 68 66 81 94
233 367 480 525 634 771 889 1095 1111 1073 1102 1036 880 676 613 478 316 279 240 209 197 239 223 186 181 148 115 100 103 92 70 66 71 73 62 59 59 71 76 79 78 87 92
354 482 559 683 888 1060 1035 1075 1146 1151 1028 935 729 613 444 368 347 305 202 213 215 171 167 134 135 131 110 104 99 75 71 65 51 41 42 52 71 77 80 80 84 84 78
358 396 459 622 688 803 913 955 962 925 839 597 539 402 375 356 317 275 286 237 185 200 192 190 150 117 95 84 66 61 48 34 22 38 25 50 73 72 84 85 80 76 69

GFSMW_con_3kmhel_252.txt.gz
Helicity
135 192 247 406 365 397 448 550 633 510 492 458 413 368 375 351 290 249 232 228 200 213 201 219 251 272 267 210 198 198 159 159 104 105 117 130 153 167 161 185 200 217 203
35 70 72 405 358 444 514 496 575 666 583 507 428 386 395 404 346 292 275 253 220 233 232 255 295 319 310 256 205 186 184 157 140 119 112 141 127 142 143 162 190 195 172
107 116 126 258 330 418 488 546 581 676 616 555 505 538 494 419 393 366 335 297 246 244 277 304 337 323 291 247 208 191 185 184 169 148 127 130 123 120 133 165 155 157 154
129 100 115 248 287 356 455 523 606 637 618 642 605 641 674 632 434 464 456 362 265 285 332 343 337 318 303 269 225 198 201 204 189 171 169 154 148 137 127 124 93 114 122
79 89 175 222 346 411 505 524 583 590 677 708 644 643 617 504 524 567 479 393 326 312 352 381 366 370 324 306 277 238 208 184 182 165 168 179 170 180 201 163 100 77 144
95 168 150 202 344 437 495 513 600 574 687 695 663 635 679 661 614 580 543 447 399 367 386 405 412 402 388 346 295 260 226 201 184 166 160 157 155 169 206 206 168 170 134
88 101 86 101 225 384 514 535 548 557 703 715 670 662 706 650 615 622 671 542 513 475 443 454 456 436 405 362 321 280 236 193 183 162 154 150 148 163 170 183 167 164 144
41 64 60 58 210 281 565 576 576 569 701 787 756 686 705 658 589 640 686 560 510 506 448 456 454 447 427 388 344 304 258 240 211 183 166 159 165 178 174 179 185 179 181
49 -37 -76 -4 84 194 448 571 616 612 726 782 805 769 746 648 598 618 718 615 557 515 435 447 475 457 426 395 354 305 278 251 211 193 179 166 178 177 183 191 193 184 203
40 66 35 76 65 115 405 531 616 689 702 777 855 867 699 642 622 704 673 648 559 473 463 490 479 456 423 395 369 314 329 259 220 207 189 182 193 208 219 219 200 184 189
-102 -105 -90 46 126 81 399 523 595 529 601 722 927 628 644 706 685 704 710 671 604 501 509 521 515 478 454 415 382 429 271 238 224 219 204 238 212 205 200 184 160 150 135
5 30 43 6 78 172 378 508 490 537 576 676 770 608 706 770 735 684 695 668 583 525 558 569 560 498 444 406 391 335 269 249 250 218 225 233 192 187 180 161 163 140 122
-26 20 -14 135 207 371 421 401 426 473 517 578 695 632 703 702 718 687 681 711 638 519 618 620 652 567 492 400 379 299 300 245 243 168 229 188 165 170 169 152 143 114 115
-28 -99 3 202 167 247 287 305 370 451 629 710 709 644 702 685 661 696 721 761 681 846 702 735 758 536 710 311 423 301 291 246 183 222 173 154 160 168 145 132 106 112 132
93 25 -15 184 177 226 269 299 401 490 555 600 598 646 635 608 649 727 851 915 915 906 1324 701 807 695 632 387 287 333 317 189 186 159 146 149 158 142 111 96 96 117 122
149 124 21 57 77 170 248 319 358 407 496 566 608 621 676 661 687 828 921 1021 945 986 1045 963 649 547 595 383 374 378 222 97 153 129 137 134 143 128 117 105 113 105 114
66 106 99 -70 60 239 310 330 347 449 514 522 593 619 618 667 742 861 973 1023 1155 1081 1117 853 685 502 384 345 241 276 127 202 106 128 122 125 113 110 94 90 93 83 62
7 2 12 71 40 215 314 355 434 468 529 574 600 645 682 702 781 863 1033 1167 1171 1167 1053 862 487 504 533 406 256 72 191 131 117 129 109 110 103 92 93 87 75 71 79
24 2 24 16 102 228 272 426 459 501 621 674 649 656 704 777 860 929 1093 1190 1184 1107 898 471 394 629 549 294 112 129 221 131 126 117 114 95 83 83 76 71 62 65 70
-37 1 -25 3 88 124 250 507 598 686 702 693 699 731 727 775 836 915 1019 1018 958 891 781 608 703 459 320 131 73 213 119 137 103 109 101 100 80 78 63 55 57 49 61
-60 -23 13 23 18 128 327 459 571 602 659 779 859 766 690 742 889 998 1007 952 906 851 760 860 607 397 200 79 97 150 87 86 82 83 78 70 75 72 57 58 51 47 58
-104 -77 -14 103 72 107 267 414 509 601 813 936 920 831 780 850 980 1019 980 951 838 752 703 629 534 292 172 87 200 85 51 71 86 79 64 46 56 85 84 64 33 49 69
-23 -81 -43 240 318 133 362 352 442 704 934 993 1015 981 883 910 908 948 971 1027 855 798 560 451 376 231 126 121 152 48 55 84 99 66 42 26 27 56 73 65 70 65 82
-62 -103 -96 181 250 210 273 425 619 765 954 1089 1111 1056 1033 1032 980 1042 1064 1213 1054 670 488 431 324 170 143 276 113 64 90 101 86 66 49 39 25 30 52 66 63 80 76
12 -62 -72 94 89 171 449 608 761 882 1029 1116 1125 1118 1076 1081 1058 1023 1121 1102 564 379 340 290 267 205 226 121 67 72 84 88 70 76 73 61 52 57 53 59 58 61 66
70 98 10 81 130 202 435 558 692 901 988 1066 1118 1129 1146 1106 1062 1020 851 452 294 275 206 153 187 311 196 81 71 69 85 82 79 96 78 59 59 56 48 52 51 50 55

GFSMW_con_3kmhel_258.txt.gz
Helicity
92 132 156 238 278 287 301 305 289 296 348 347 314 319 331 278 231 250 258 278 220 229 228 233 215 248 244 231 223 293 290 288 239 226 184 161 162 179 193 208 215 211 192
69 70 118 166 231 300 431 350 323 375 414 406 420 374 341 327 285 252 282 298 263 286 283 289 283 305 308 283 307 335 326 295 232 206 188 152 176 182 208 224 220 207 186
60 53 50 70 154 240 330 392 389 459 502 482 487 459 428 396 361 386 375 379 308 343 329 331 325 355 342 312 313 342 378 345 258 207 190 201 158 196 200 199 220 216 180
102 78 52 28 103 173 231 279 281 313 333 476 546 558 599 525 481 458 407 378 394 368 354 346 361 383 386 340 337 342 368 346 308 259 221 222 192 184 172 183 175 186 178
73 83 98 6 6 37 98 198 298 328 377 457 473 514 514 542 542 499 460 452 459 419 369 378 386 405 414 361 356 381 336 318 323 327 301 274 253 235 229 188 185 190 156
100 93 36 -7 -28 7 55 112 155 308 440 499 488 548 527 515 534 603 604 548 533 514 390 400 404 477 491 419 388 347 358 315 310 327 324 294 249 217 223 219 177 141 123
-55 -62 -91 -53 -54 -23 -36 -58 34 122 298 430 488 496 529 555 549 570 646 636 643 551 449 485 490 545 536 434 431 385 362 351 315 334 315 296 262 237 240 236 208 223 137
6 -45 -52 -149 -164 -95 -68 -70 -29 45 150 286 351 419 437 528 565 600 607 612 625 485 472 507 522 515 584 509 423 433 380 382 366 344 339 343 315 268 239 219 207 252 209
126 78 -6 -87 -113 -120 -60 -39 -3 51 101 183 340 331 378 387 457 484 553 584 620 477 481 540 604 546 550 522 455 454 427 421 438 393 385 397 376 326 260 237 260 241 269
175 165 131 120 64 4 7 41 113 76 76 114 256 337 383 382 364 411 535 586 662 539 460 499 539 563 611 575 579 518 497 485 468 451 425 383 345 367 342 347 363 197 157
106 89 65 15 50 53 66 86 73 56 77 73 144 287 343 345 340 348 421 563 631 497 447 475 508 558 661 652 674 643 605 585 557 510 494 360 375 374 369 314 238 184 115
29 66 42 18 17 9 -26 28 48 57 49 47 19 198 242 298 326 311 366 592 486 430 438 493 534 592 653 692 753 813 724 665 623 603 563 387 342 331 265 215 157 167 86
-44 -11 -10 -35 -37 -3 13 26 21 -22 52 23 99 172 167 227 275 329 387 552 475 455 468 535 555 610 692 851 933 1025 1005 474 520 341 448 422 321 349 256 126 222 163 78
-32 -16 12 8 -8 27 -3 -9 31 65 13 -42 220 184 156 261 277 388 445 438 447 438 498 528 558 631 796 876 1017 1104 869 618 630 730 561 454 498 406 153 245 234 131 71
4 22 10 12 -9 -25 24 40 50 50 66 11 113 265 272 310 402 405 379 441 389 402 497 580 603 716 824 964 1028 951 879 876 919 781 718 589 414 353 231 196 183 80 68
19 8 -2 8 -1 -25 -44 -17 64 71 53 67 -7 121 349 421 374 364 376 371 367 461 585 597 668 728 755 897 1102 1065 978 966 797 844 747 546 519 275 215 187 92 40 59
24 9 15 -2 -5 -14 -18 -55 -9 72 56 22 -26 29 189 295 348 350 346 356 455 526 546 592 646 711 828 937 1055 1036 937 802 913 930 706 485 363 217 186 169 48 41 53
66 31 29 9 -24 -41 -26 -48 -60 34 55 98 -38 -68 192 298 282 288 350 414 473 505 550 591 661 773 804 942 1104 1087 1009 791 865 680 391 424 277 227 198 83 36 50 55
68 9 11 2 -1 -28 -62 -78 -77 -15 30 93 87 -12 31 234 293 308 366 417 489 538 568 650 728 758 870 965 988 1015 816 841 699 450 372 314 227 200 82 56 50 50 51
61 15 -18 5 -7 -2 -47 -49 -73 -105 16 40 161 77 47 -9 355 455 444 448 477 578 673 692 663 826 896 920 782 958 931 840 634 438 317 187 183 145 26 33 40 53 50
-7 -11 -5 5 -1 -1 -15 -36 -28 -42 -47 20 33 146 218 291 320 500 534 525 633 742 720 738 760 864 883 748 892 909 818 633 479 316 226 161 181 56 12 18 38 43 52
41 59 76 61 46 26 3 -24 -4 -13 -50 8 6 140 260 357 444 583 618 665 765 755 739 803 899 900 862 731 782 758 580 379 351 265 198 174 72 18 18 38 39 64 63
92 103 99 99 72 53 17 -10 11 -14 -28 38 -2 161 247 326 434 676 652 663 699 768 802 836 924 928 837 808 744 614 405 347 330 209 167 132 35 43 49 56 63 71 68
104 96 112 123 76 36 10 96 36 -13 6 5 97 293 339 403 473 496 507 664 746 796 857 921 1012 1046 1054 968 716 428 354 297 320 220 195 187 88 31 38 45 58 64 61
76 112 116 137 52 18 19 50 23 7 28 56 236 393 445 488 483 497 508 573 638 758 871 953 1167 1338 1123 668 327 342 360 293 198 209 283 190 66 16 29 36 43 56 59
100 104 121 169 1 -20 25 21 18 13 44 124 236 383 521 515 499 568 647 621 690 780 873 1064 1156 752 400 349 343 363 251 228 241 268 263 127 35 23 28 34 41 60 60

GFSMW_con_3kmhel_264.txt.gz
Helicity
82 68 110 131 124 99 58 43 41 63 77 98 129 141 132 94 87 89 88 99 122 128 151 173 195 202 190 216 217 217 213 206 255 303 255 201 183 160 150 129 116 123 103
161 176 171 189 233 239 207 117 71 48 72 75 88 93 95 98 80 64 88 143 159 185 193 184 197 222 190 197 201 280 331 265 321 270 247 199 175 151 158 150 143 147 133
194 215 225 235 244 251 251 216 137 75 39 79 104 81 72 88 90 108 129 148 156 213 258 271 253 271 286 241 232 314 336 340 345 302 279 242 184 143 126 153 155 167 137
264 268 246 233 246 252 226 212 161 113 71 48 94 88 84 55 80 104 100 125 164 194 231 297 349 364 407 379 346 341 324 339 385 375 275 322 297 175 107 97 112 158 139
335 319 280 251 215 205 214 178 168 120 90 57 49 85 89 100 110 89 67 109 140 132 133 223 303 366 414 420 404 442 414 369 601 369 473 260 294 354 200 111 134 133 139
186 193 134 118 112 99 125 163 164 159 147 106 47 40 50 79 134 116 111 105 127 145 155 163 241 303 371 416 448 430 518 627 451 460 470 499 528 463 270 168 226 136 160
152 192 146 131 110 74 49 34 64 78 105 100 89 54 38 46 63 100 131 113 129 142 172 190 190 237 283 319 396 483 617 503 548 469 512 309 396 418 305 160 253 274 353
212 215 185 128 104 80 108 110 68 81 103 114 88 73 48 37 57 59 93 138 144 142 142 203 228 191 149 223 303 532 576 509 467 464 427 684 653 348 320 244 370 328 346
170 152 141 120 86 65 67 51 61 75 79 115 126 120 75 57 39 40 73 107 118 131 127 187 253 217 185 211 341 483 457 446 391 437 528 703 763 452 360 390 383 367 417
105 82 60 21 -7 2 17 7 21 50 53 53 55 66 103 84 65 49 57 87 107 122 129 155 242 266 204 312 411 475 391 419 459 526 595 541 569 486 553 703 670 681 636
60 31 25 7 11 32 57 71 54 26 44 59 71 68 53 54 65 67 52 54 70 107 135 199 261 289 320 430 490 502 487 405 441 548 528 543 557 629 677 714 799 880 612
56 93 105 109 117 129 134 125 123 103 78 72 70 82 84 81 56 44 57 72 62 78 122 251 340 314 305 439 492 500 441 467 488 558 585 566 660 727 749 803 1107 949 606
94 88 75 55 54 75 98 96 92 92 76 74 75 75 79 82 95 95 44 68 72 78 179 265 317 348 388 492 441 451 463 447 487 484 545 619 680 770 848 899 469 463 409
102 85 61 51 49 59 69 64 58 43 33 28 29 43 75 88 78 73 78 63 122 177 229 266 295 356 467 495 439 421 419 440 462 466 538 646 726 821 745 502 349 354 394
54 68 77 57 50 54 71 66 76 49 20 11 12 24 16 46 71 64 62 88 80 226 351 299 351 434 523 559 452 391 421 457 477 503 557 638 664 616 473 392 364 320 303
85 94 87 81 77 63 76 63 44 47 37 3 1 0 11 6 30 47 72 51 133 75 221 364 417 471 511 420 381 413 408 420 500 539 566 545 560 557 497 343 337 304 200
90 86 88 62 46 60 66 50 36 29 30 10 -15 -23 -13 4 1 22 30 46 72 186 176 246 406 398 389 326 344 359 397 463 504 598 669 610 623 683 509 408 411 299 255
76 75 64 67 54 65 48 46 43 32 26 23 18 -7 -22 -12 -2 -10 10 17 90 130 99 187 282 297 293 273 352 386 414 475 526 633 622 666 573 470 470 401 273 218 185
75 61 70 68 61 59 55 49 60 52 44 29 21 17 6 -26 -7 -4 -9 16 56 141 177 108 107 331 362 353 408 458 479 532 604 641 607 547 479 439 403 312 270 236 190
70 77 71 64 55 64 65 53 55 50 38 34 27 26 18 3 -8 -4 5 7 109 120 195 177 108 258 407 388 441 482 563 581 647 630 614 513 438 401 338 317 272 259 178
58 75 75 69 42 37 46 44 44 48 47 36 39 38 34 11 4 -1 -6 10 101 192 234 224 220 154 95 191 403 543 522 617 652 703 642 538 433 436 289 225 186 186 188
53 51 55 58 50 43 34 41 50 40 35 39 49 41 30 43 33 12 -4 0 90 161 232 315 334 286 288 214 377 513 530 600 747 785 673 518 497 350 260 205 237 229 168
53 53 62 47 50 39 44 39 35 49 36 45 54 51 40 50 50 37 5 6 101 247 321 364 362 422 433 390 583 596 547 678 763 627 529 450 373 284 287 215 204 166 184
65 67 58 50 45 50 42 50 42 58 48 54 50 55 41 54 48 38 24 16 167 300 378 410 405 453 488 489 596 756 860 728 651 534 457 456 388 305 248 239 199 138 156
61 67 82 72 60 52 51 51 55 72 69 59 51 50 58 84 28 17 25 57 156 302 421 414 467 484 480 573 799 934 815 721 690 786 629 554 426 317 277 217 200 172 123
89 88 73 78 63 75 80 80 100 91 78 56 55 65 68 49 11 -13 38 160 104 211 349 372 484 399 454 686 803 841 839 752 689 623 510 415 319 265 220 209 180 159 94